Back to catalog

STARLINK-11705

AliveCommunicationsVLEO
NORAD 63758·PAYLOAD·🇺🇸 United States

Launched Apr 29, 2025 from Cape Canaveral Space Force Station

Loading…

Next Passes (next 24 hours)

TLE

FreshSource: CelesTrak SupGP

Epoch: Sep 15, 2026, 03:28 UTC

1 63758C 25089H   26258.14493056 -.00037573  00000+0 -29184-3 0  2589
2 63758  43.0006 230.4331 0001485 267.6917 324.0733 15.70856580    14

Track STARLINK-11705 in real time with AllMySat

Download on the App Store